Location: Songkhla
(7.2000°N, 100.6000°E)
Time: 04:16:58
(UTC+07:00)

BRICSAT 2 - Pass Details

Date: 23 June 2021
Orbit: 295 x 638 km, 28.5° (Epoch: 28 July)

Event Time Altitude Azimuth Distance (km) Brightness Sun altitude
Rises 08:48:59 0° 218° (SW) 2,320 ? 37.0°
Reaches altitude 10° 08:51:38 10° 198° (SSW) 1,382 ? 37.6°
Maximum altitude 08:53:53 18° 152° (SSE) 948 ? 38.1°
Drops below altitude 10° 08:55:58 10° 105° (ESE) 1,268 ? 38.5°
Sets 08:58:21 0° 84° (E) 2,085 ? 39.1°
